Home > Weather > Szeged > Past weeks

Flag for Hungary Past Weather in Szeged, Hungary — Yesterday and Last 2 Weeks

Now
89 °F

Passing clouds.


Feels Like: 91 °F
Forecast: 72 / 89 °F
Wind: 6 mph from Southeast

Location: Szeged

Current Time: Jun 25, 2016 at 8:00:38 PM

Latest Report: Jun 25, 2016 at 7:00 PM


Visibility: 25 mi

Pressure: 29.87 "Hg

Humidity: 47%

Dew Point: 66 °F

Location of SzegedLocation

Past Weather in Szeged — Graph

°F

Szeged Temperature Yesterday

Maximum temperature yesterday: 94 °F (at 3:00 PM)
Minimum temperature yesterday: 69 °F (at 5:00 AM)
Average temperature yesterday: 81 °F

High & Low Weather Summary for the Past Weeks

 TemperatureHumidityPressure
High94 °F (Jun 24, 3:00 PM)100% (Jun 12, 6:00 AM)30.22 "Hg (Jun 12, 6:00 AM)
Low56 °F (Jun 11, 5:00 AM)36% (Jun 25, 2:00 PM)29.47 "Hg (Jun 14, 6:00 PM)
Average72 °F76%29.89 "Hg
* Reported Jun 10 6:00 PM — Jun 25 6:00 PM, Szeged, Weather by CustomWeather, © 2016

Note: Actual official high and low records may vary slightly from our data, if they occured in-between our weather recording intervals... More about our weather records

Advertising

Szeged Weather History for the Previous 24 Hours

Scroll right to see more
 ConditionsComfort  
Time TempWeatherWind HumidityBarometerVisibility
6:00 PM
Sat, Jun 25
91 °FPassing clouds.5 mph41%29.88 "Hg25 mi
5:00 PM92 °FPassing clouds.3 mph39%29.89 "Hg25 mi
4:00 PM92 °FPassing clouds.6 mph38%29.91 "Hg25 mi
3:00 PM91 °FPassing clouds.6 mph37%29.93 "Hg25 mi
2:00 PM91 °FPassing clouds.7 mph36%29.94 "Hg25 mi
1:00 PM90 °FPassing clouds.6 mph45%29.96 "Hg19 mi
12:00 PM88 °FPassing clouds.5 mph50%29.97 "Hg19 mi
11:00 AM85 °FPassing clouds.5 mph51%29.98 "Hg19 mi
10:00 AM83 °FPassing clouds.5 mph53%29.98 "Hg19 mi
9:00 AM80 °FPassing clouds.3 mph58%29.98 "Hg19 mi
8:00 AM77 °FPassing clouds.2 mph67%29.98 "Hg19 mi
7:00 AM72 °FPassing clouds.3 mph75%29.98 "Hg16 mi
6:00 AM68 °FPassing clouds.2 mph85%29.98 "Hg12 mi
5:00 AM67 °FPassing clouds.3 mph84%29.98 "Hg12 mi
4:00 AM67 °FClear.2 mph87%29.98 "Hg12 mi
3:00 AM66 °FPassing clouds.1 mph89%29.99 "Hg12 mi
2:00 AM70 °FPassing clouds.3 mph80%30.00 "Hg16 mi
1:00 AM71 °FPassing clouds.3 mph76%30.01 "Hg16 mi
12:00 AM73 °FPassing clouds.3 mph73%30.01 "Hg16 mi
11:00 PM
Fri, Jun 24
75 °FPassing clouds.5 mph73%30.03 "Hg16 mi
10:00 PM75 °FPassing clouds.2 mph79%30.01 "Hg16 mi
9:00 PM76 °FThunderstorms. Passing clouds.3 mph74%30.01 "Hg12 mi
8:00 PM74 °FThundershowers. Partly sunny.6 mph75%30.01 "Hg5 mi
Weather by CustomWeather, © 2016

See weather overviewHow to use our weather pages